COSMOS 2456 (730) (36111 NORAD) Tracking and Keplerian Element Data

This shows tracking and keplerian element data for the satellite.

Feedback or suggestion? Click here.




ElementValue
Catalog36111
NameCOSMOS 2456 (730)
Epoch Orbit7004
Epoch Day348.67293168
Epoch Year2018
RAAN164.9321
Inclination64.1912
Eccentricity0.0003027
Argument of Perigee353.6649
Mean Anonmoly193.3978
Mean Motion2.13102908
Decay Rate1.06E-06
L11 36111U 09070A 18348.67293168 .00000106 00000-0 00000+0 0 9990
L22 36111 64.1912 164.9321 0003027 353.6649 193.3978 2.13102908 70048

Live tracking and technical data element details for COSMOS 2456 (730) (NORAD 36111). COSMOS 2456 (730) can be tracked NOW for your location showing map with azimuth and elevation plus other details from your city location.

Track the satellite on the map from your city or location and see movement details for azimuth, elevation, latitude, longitude, range, height, and movement on the map or in text.







IsCatalogInMostPopularTable: catalog: 36111, numindb: 48
Update: records affected: 1



GetName: 36111 COSMOS 2456 (730)

Hit Count: updated at: Sat, 15 Dec 2018 13:15:25 GMT